When you browse on this site, cookies collect data to enhance your experience and personalize the content and advertising you see.
Visit our Privacy Policy to learn more. By continuing to use the site, you agree to this use of cookies and data.
  • In Slovakia
  • List of Countries
  • For 7 days
  • Water Temperature
  • Weather Map
  • Weather Widgets
  • user-avatar
    Login

    Hourly Weather Canillo

    Today, 29 May, Friday

    Time Temperature Precipitation Wind Pressure Humidity
    00:00 +9°C° 0 mm 1 mps 620 mmHg 89%
    01:00 +9°C° 0 mm 1 mps 620 mmHg 87%
    02:00 +9°C° 0 mm 1 mps 620 mmHg 85%
    03:00 +8°C° 0 mm 1 mps 619 mmHg 83%
    04:00 +9°C° 0 mm 1 mps 619 mmHg 80%
    05:00 +10°C° 0 mm 1 mps 620 mmHg 77%
    06:00 +11°C° 0 mm 1 mps 620 mmHg 74%
    07:00 +13°C° 0 mm 1 mps 621 mmHg 62%
    08:00 +15°C° 0 mm 1 mps 621 mmHg 50%
    09:00 +19°C° 0 mm 1 mps 622 mmHg 38%
    10:00 +19°C° 0 mm 1 mps 622 mmHg 37%
    11:00 +19°C° 0 mm 2 mps 622 mmHg 36%
    12:00 +20°C° 0 mm 2 mps 622 mmHg 35%
    13:00 +19°C° 0.2 mm 2 mps 622 mmHg 40%
    14:00 +19°C° 0.2 mm 2 mps 621 mmHg 45%
    15:00 +18°C° 0.2 mm 2 mps 621 mmHg 49%
    16:00 +16°C° 0.7 mm 2 mps 620 mmHg 60%
    17:00 +15°C° 0.7 mm 2 mps 619 mmHg 70%
    18:00 +14°C° 0.7 mm 1 mps 619 mmHg 81%
    19:00 +12°C° 0.2 mm 1 mps 619 mmHg 85%
    20:00 +10°C° 0.2 mm 1 mps 618 mmHg 89%
    21:00 +9°C° 0.2 mm 1 mps 618 mmHg 93%
    22:00 +9°C° 0 mm 1 mps 618 mmHg 92%
    23:00 +8°C° 0 mm 1 mps 618 mmHg 92%

    Tomorrow, 30 May, Saturday

    Time Temperature Precipitation Wind Pressure Humidity
    00:00 +8°C° 0 mm 1 mps 618 mmHg 91%
    01:00 +8°C° 0 mm 1 mps 618 mmHg 90%
    02:00 +8°C° 0 mm 1 mps 618 mmHg 89%
    03:00 +8°C° 0 mm 1 mps 617 mmHg 89%
    04:00 +8°C° 0 mm 1 mps 618 mmHg 87%
    05:00 +9°C° 0 mm 1 mps 618 mmHg 85%
    06:00 +10°C° 0 mm 1 mps 619 mmHg 84%
    07:00 +12°C° 0 mm 1 mps 619 mmHg 74%
    08:00 +14°C° 0 mm 1 mps 620 mmHg 63%
    09:00 +16°C° 0 mm 1 mps 621 mmHg 53%
    10:00 +18°C° 0 mm 1 mps 621 mmHg 51%
    11:00 +18°C° 0 mm 2 mps 621 mmHg 48%
    12:00 +18°C° 0 mm 2 mps 621 mmHg 46%
    13:00 +18°C° 0.3 mm 2 mps 621 mmHg 50%
    14:00 +17°C° 0.3 mm 2 mps 620 mmHg 55%
    15:00 +17°C° 0.3 mm 2 mps 620 mmHg 60%
    16:00 +16°C° 0.3 mm 1 mps 619 mmHg 66%
    17:00 +15°C° 0.3 mm 1 mps 619 mmHg 73%
    18:00 +14°C° 0.3 mm 1 mps 618 mmHg 80%
    19:00 +12°C° 0 mm 1 mps 618 mmHg 85%
    20:00 +11°C° 0 mm 1 mps 618 mmHg 89%
    21:00 +10°C° 0 mm 1 mps 617 mmHg 94%
    22:00 +9°C° 0 mm 1 mps 617 mmHg 93%
    23:00 +9°C° 0 mm 1 mps 617 mmHg 91%

    Day after tomorrow, 31 May, Sunday

    Time Temperature Precipitation Wind Pressure Humidity
    00:00 +9°C° 0 mm 1 mps 617 mmHg 90%
    01:00 +8°C° 0 mm 1 mps 617 mmHg 88%
    02:00 +8°C° 0 mm 1 mps 616 mmHg 87%
    03:00 +8°C° 0 mm 1 mps 616 mmHg 85%
    04:00 +9°C° 0 mm 1 mps 617 mmHg 82%
    05:00 +10°C° 0 mm 1 mps 617 mmHg 79%
    06:00 +11°C° 0 mm 1 mps 617 mmHg 76%
    07:00 +13°C° 0 mm 1 mps 618 mmHg 67%
    08:00 +15°C° 0 mm 1 mps 619 mmHg 57%
    09:00 +18°C° 0 mm 1 mps 620 mmHg 48%
    10:00 +18°C° 0 mm 2 mps 621 mmHg 45%
    11:00 +19°C° 0 mm 2 mps 621 mmHg 42%
    12:00 +20°C° 0 mm 2 mps 621 mmHg 40%
    13:00 +19°C° 0.4 mm 2 mps 620 mmHg 48%
    14:00 +18°C° 0.4 mm 2 mps 620 mmHg 57%
    15:00 +17°C° 0.4 mm 2 mps 619 mmHg 65%
    16:00 +16°C° 0.8 mm 1 mps 619 mmHg 71%
    17:00 +15°C° 0.8 mm 1 mps 618 mmHg 78%
    18:00 +14°C° 0.8 mm 1 mps 618 mmHg 84%
    19:00 +13°C° 0.5 mm 1 mps 617 mmHg 87%
    20:00 +12°C° 0.5 mm 1 mps 617 mmHg 89%
    21:00 +11°C° 0.5 mm 1 mps 617 mmHg 91%
    22:00 +10°C° 0.2 mm 1 mps 617 mmHg 90%
    23:00 +10°C° 0.2 mm 1 mps 617 mmHg 89%

    1 June, Monday

    Time Temperature Precipitation Wind Pressure Humidity
    00:00 +10°C° 0.2 mm 1 mps 617 mmHg 88%
    01:00 +10°C° 0 mm 1 mps 616 mmHg 87%
    02:00 +9°C° 0 mm 1 mps 616 mmHg 86%
    03:00 +9°C° 0 mm 1 mps 616 mmHg 85%
    04:00 +10°C° 0 mm 1 mps 617 mmHg 85%
    05:00 +11°C° 0 mm 1 mps 617 mmHg 84%
    06:00 +11°C° 0 mm 1 mps 617 mmHg 84%
    07:00 +13°C° 0.1 mm 1 mps 618 mmHg 75%
    08:00 +15°C° 0.1 mm 1 mps 619 mmHg 67%
    09:00 +18°C° 0.1 mm 1 mps 620 mmHg 59%
    10:00 +18°C° 0.9 mm 1 mps 620 mmHg 62%
    11:00 +18°C° 0.9 mm 1 mps 619 mmHg 66%
    12:00 +18°C° 0.9 mm 1 mps 619 mmHg 70%
    13:00 +16°C° 0.9 mm 1 mps 619 mmHg 70%
    14:00 +16°C° 0.9 mm 1 mps 619 mmHg 69%
    15:00 +16°C° 0.9 mm 1 mps 619 mmHg 69%
    16:00 +16°C° 0.3 mm 1 mps 619 mmHg 71%
    17:00 +15°C° 0.3 mm 1 mps 618 mmHg 72%
    18:00 +14°C° 0.3 mm 1 mps 618 mmHg 74%
    19:00 +13°C° 0 mm 1 mps 618 mmHg 80%
    20:00 +11°C° 0 mm 1 mps 618 mmHg 87%
    21:00 +9°C° 0 mm 1 mps 617 mmHg 93%
    22:00 +9°C° 0 mm 1 mps 617 mmHg 91%
    23:00 +9°C° 0 mm 1 mps 617 mmHg 89%

    2 June, Tuesday

    Time Temperature Precipitation Wind Pressure Humidity
    00:00 +8°C° 0 mm 1 mps 617 mmHg 87%
    01:00 +8°C° 0 mm 1 mps 617 mmHg 85%
    02:00 +8°C° 0 mm 1 mps 616 mmHg 83%
    03:00 +8°C° 0 mm 1 mps 616 mmHg 81%
    04:00 +9°C° 0 mm 1 mps 617 mmHg 81%
    05:00 +10°C° 0 mm 1 mps 617 mmHg 80%
    06:00 +11°C° 0 mm 1 mps 618 mmHg 80%
    07:00 +13°C° 0 mm 1 mps 619 mmHg 73%
    08:00 +15°C° 0 mm 1 mps 619 mmHg 66%
    09:00 +18°C° 0 mm 1 mps 620 mmHg 59%
    10:00 +17°C° 0.1 mm 2 mps 620 mmHg 60%
    11:00 +17°C° 0.1 mm 2 mps 620 mmHg 60%
    12:00 +17°C° 0.1 mm 2 mps 620 mmHg 61%
    13:00 +17°C° 0.6 mm 2 mps 619 mmHg 65%
    14:00 +16°C° 0.6 mm 2 mps 619 mmHg 69%
    15:00 +16°C° 0.6 mm 2 mps 618 mmHg 73%
    16:00 +15°C° 1.2 mm 2 mps 618 mmHg 78%
    17:00 +14°C° 1.2 mm 1 mps 617 mmHg 84%
    18:00 +13°C° 1.2 mm 1 mps 616 mmHg 89%
    19:00 +12°C° 0.9 mm 1 mps 616 mmHg 91%
    20:00 +12°C° 0.9 mm 1 mps 616 mmHg 92%
    21:00 +11°C° 0.9 mm 1 mps 616 mmHg 94%
    22:00 +11°C° 0.5 mm 1 mps 615 mmHg 95%
    23:00 +11°C° 0.5 mm 1 mps 615 mmHg 95%

    3 June, Wednesday

    Time Temperature Precipitation Wind Pressure Humidity
    00:00 +11°C° 0.5 mm 1 mps 615 mmHg 95%
    01:00 +10°C° 0.1 mm 1 mps 614 mmHg 95%
    02:00 +10°C° 0.1 mm 1 mps 614 mmHg 95%
    03:00 +8°C° 0.1 mm 0 mps 613 mmHg 95%
    04:00 +9°C° 0.3 mm 0 mps 613 mmHg 95%
    05:00 +10°C° 0.3 mm 1 mps 614 mmHg 94%
    06:00 +10°C° 0.3 mm 1 mps 614 mmHg 94%
    07:00 +11°C° 0.3 mm 1 mps 614 mmHg 91%
    08:00 +12°C° 0.3 mm 1 mps 614 mmHg 88%
    09:00 +13°C° 0.3 mm 2 mps 615 mmHg 85%
    10:00 +14°C° 0.9 mm 2 mps 615 mmHg 86%
    11:00 +14°C° 0.9 mm 2 mps 615 mmHg 87%
    12:00 +14°C° 0.9 mm 2 mps 615 mmHg 88%
    13:00 +14°C° 1.1 mm 2 mps 614 mmHg 88%
    14:00 +14°C° 1.1 mm 1 mps 614 mmHg 88%
    15:00 +14°C° 1.1 mm 1 mps 614 mmHg 88%
    16:00 +13°C° 0.8 mm 1 mps 613 mmHg 90%
    17:00 +13°C° 0.8 mm 1 mps 613 mmHg 92%
    18:00 +12°C° 0.8 mm 1 mps 613 mmHg 95%
    19:00 +12°C° 0.8 mm 1 mps 613 mmHg 95%
    20:00 +11°C° 0.8 mm 1 mps 613 mmHg 96%
    21:00 +11°C° 0.8 mm 1 mps 613 mmHg 96%
    22:00 +10°C° 0.4 mm 1 mps 613 mmHg 96%
    23:00 +10°C° 0.4 mm 1 mps 613 mmHg 95%
    Show more